AALTO-1 (42775 NORAD) Tracking and Keplerian Element Data

This shows tracking and keplerian element data for the satellite.

Feedback or suggestion? Click here.




ElementValue
Catalog42775
NameAALTO-1
Epoch Orbit18457
Epoch Day293.71717306
Epoch Year2020
RAAN341.999
Inclination97.2838
Eccentricity0.0012312
Argument of Perigee307.0232
Mean Anonmoly52.9877
Mean Motion15.22023941
Decay Rate8.59E-06
L11 42775U 17036L 20293.71717306 .00000859 00000-0 40515-4 0 9991
L22 42775 97.2838 341.9990 0012312 307.0232 52.9877 15.22023941184577

Live tracking and technical data element details for AALTO-1 (NORAD 42775). AALTO-1 can be tracked NOW for your location showing map with azimuth and elevation plus other details from your city location.

Track the satellite on the map from your city or location and see movement details for azimuth, elevation, latitude, longitude, range, height, and movement on the map or in text.







IsCatalogInMostPopularTable: catalog: 42775, numindb: 400
Update: records affected: 1



GetName: 42775 AALTO-1

Hit Count: updated at: Tue, 20 Oct 2020 18:16:14 GMT